Waarnemingen

Advertentie
Mijn weer
Lugo/Rozas, Spanje (8008): temperatuur & dauwpunt: 11.01.2019 01:00:00 - 17.01.2019 01:00:00 (CET)Lugo/Rozas, Spanje (8008): windsnelheid: 11.01.2019 01:00:00 - 17.01.2019 01:00:00 (CET)Lugo/Rozas, Spanje (8008): windrichting: 11.01.2019 01:00:00 - 17.01.2019 01:00:00 (CET)Lugo/Rozas, Spanje (8008): luchtdruk: 11.01.2019 01:00:00 - 17.01.2019 01:00:00 (CET)Lugo/Rozas, Spanje (8008): zicht: 11.01.2019 01:00:00 - 17.01.2019 01:00:00 (CET)Lugo/Rozas, Spanje (8008): neerslag: 11.01.2019 01:00:00 - 17.01.2019 01:00:00 (CET)
Datum & Tijd tt [°C] td [°C] ff [km/u] ff [kn] dd ppp [hPa] vv [km] rr [mm]
17.01.2019 01:00:00 6,2 5,3 2 1 W 1021,6 2,4 -
17.01.2019 00:00:00 6,8 6,2 4 2 NNW 1021,1 4,8 1,0
16.01.2019 23:00:00 7,0 6,4 4 2 NW 1020,9 4,7 0,4
16.01.2019 22:00:00 7,4 6,8 4 2 NW 1020,4 2,3 -
16.01.2019 21:00:00 7,9 7,1 4 2 NNW 1019,6 1,7 0,8
16.01.2019 20:00:00 8,2 7,0 4 2 WZW 1019,1 4,7 0,2
16.01.2019 19:00:00 8,6 6,6 5 3 ZZW 1018,3 20 -
16.01.2019 18:00:00 9,2 6,6 5 3 ZW 1018,0 20 0,0
16.01.2019 17:00:00 9,3 7,1 4 2 W 1017,7 20 0,0
16.01.2019 16:00:00 8,7 6,8 5 3 W 1017,7 20 -
16.01.2019 15:00:00 8,9 7,0 8 4 ZW 1017,5 20 0,0
16.01.2019 14:00:00 9,0 7,0 11 6 ZW 1017,7 20 0,0
16.01.2019 13:00:00 8,6 6,7 11 6 ZZW 1018,3 15 -
16.01.2019 12:00:00 7,2 6,0 11 6 ZW 1019,0 7 0,0
16.01.2019 11:00:00 6,6 5,7 8 4 ZZW 1019,1 3,3 0,2
16.01.2019 10:00:00 6,6 5,2 9 5 ZZW 1018,6 15 -
16.01.2019 09:00:00 6,3 4,9 11 6 ZZW 1018,5 6 0,0
16.01.2019 08:00:00 6,4 4,9 9 5 ZZW 1018,2 6 0,0
16.01.2019 07:00:00 6,4 5,0 5 3 Z 1018,2 12 -
16.01.2019 06:00:00 5,2 4,5 5 3 Z 1018,8 6 0,0
16.01.2019 05:00:00 4,2 3,9 5 3 Z 1019,3 - 0,0
16.01.2019 04:00:00 1,9 1,9 8 4 ZZW 1020,0 6 -
16.01.2019 03:00:00 -0,6 -1,2 2 1 OZO 1020,9 0,4 0,0
16.01.2019 02:00:00 -0,1 -0,8 2 1 WZW 1020,8 0,5 0,0
16.01.2019 01:00:00 0,6 -0,4 2 1 Z 1021,0 3,1 -
16.01.2019 00:00:00 1,3 0,7 2 1 ZZW 1021,3 3,5 0,0
15.01.2019 23:00:00 1,6 0,6 4 2 ZZO 1021,3 4,3 0,0
15.01.2019 22:00:00 2,4 1,2 4 2 ZZO 1021,1 6 -
15.01.2019 21:00:00 3,1 1,6 2 1 Z 1020,8 - 0,0
15.01.2019 20:00:00 4,6 2,8 4 2 ZZO 1020,4 4,6 0,0
15.01.2019 19:00:00 6,9 3,7 2 1 Z 1019,9 7 -
15.01.2019 18:00:00 9,8 5,6 0 0 N 1019,1 20 0,0
15.01.2019 17:00:00 10,6 6,2 2 1 NNW 1019,1 20 0,0
15.01.2019 16:00:00 10,5 5,7 2 1 NO 1019,3 20 -
15.01.2019 15:00:00 10,0 5,6 4 2 NNW 1019,8 20 0,0
15.01.2019 14:00:00 7,2 4,5 4 2 O 1021,4 19 0,0
15.01.2019 13:00:00 4,9 3,2 4 2 NO 1023,0 15 -
15.01.2019 12:00:00 4,1 2,4 4 2 NNW 1023,8 13 0,0
15.01.2019 11:00:00 2,0 1,1 2 1 Z 1024,6 14 0,0
15.01.2019 10:00:00 1,3 0,7 2 1 Z 1024,3 20 -
15.01.2019 09:00:00 0,1 -0,2 5 3 ZZW 1024,3 2,1 0,0
15.01.2019 08:00:00 0,8 0,1 4 2 ZZW 1024,3 7 0,0
15.01.2019 07:00:00 1,9 1,9 4 2 ZZO 1024,0 0,3 -
15.01.2019 06:00:00 1,2 1,1 5 3 ZO 1024,5 2,0 0,0
15.01.2019 05:00:00 -0,3 -0,6 4 2 ZZO 1025,4 - 0,0
15.01.2019 04:00:00 -0,6 -1,4 5 3 ZZO 1025,8 4,8 -
15.01.2019 03:00:00 0,0 -1,0 5 3 ZZO 1025,6 4,2 0,0
15.01.2019 02:00:00 0,8 0,1 2 1 ZZO 1025,7 3,0 0,0
15.01.2019 01:00:00 1,2 0,3 2 1 ZZO 1025,8 3,3 -
15.01.2019 00:00:00 2,1 0,6 4 2 ZO 1026,0 7 0,0
14.01.2019 23:00:00 3,1 1,5 2 1 Z 1025,9 5 0,0
14.01.2019 22:00:00 5,1 3,8 8 4 ONO 1025,4 9 -
14.01.2019 21:00:00 6,6 4,8 4 2 NO 1025,3 19 0,0
14.01.2019 20:00:00 7,4 5,2 5 3 NO 1025,6 20 0,0
14.01.2019 19:00:00 7,9 5,7 8 4 NO 1025,4 20 -
14.01.2019 18:00:00 8,5 6,1 5 3 NO 1025,3 20 0,0
14.01.2019 17:00:00 9,3 6,4 8 4 NO 1025,2 20 0,0
14.01.2019 16:00:00 10,3 6,6 5 3 NNO 1025,4 20 -
14.01.2019 15:00:00 11,2 6,3 5 3 NO 1025,7 20 0,0
14.01.2019 14:00:00 11,9 7,0 5 3 NO 1026,0 20 0,0
14.01.2019 13:00:00 9,3 5,7 13 7 ONO 1027,5 25 -
14.01.2019 12:00:00 8,0 5,3 11 6 ONO 1028,5 20 0,0
14.01.2019 11:00:00 6,9 6,0 5 3 NO 1028,8 20 0,0
14.01.2019 10:00:00 6,3 5,7 2 1 NNO 1028,8 12 -
14.01.2019 09:00:00 6,4 5,3 0 0 N 1028,7 4,7 0,0
14.01.2019 08:00:00 6,5 5,4 2 1 ONO 1028,6 20 0,0
14.01.2019 07:00:00 6,2 5,3 4 2 ONO 1028,8 20 -
14.01.2019 06:00:00 6,2 5,2 0 0 N 1029,0 20 0,0
14.01.2019 05:00:00 6,4 5,0 0 0 N 1029,4 20 0,0
14.01.2019 04:00:00 6,5 5,1 2 1 ZW 1029,9 20 -
14.01.2019 03:00:00 6,6 5,2 2 1 N 1030,3 19 0,0
14.01.2019 02:00:00 6,8 5,6 2 1 NNO 1030,2 20 0,0
14.01.2019 01:00:00 6,6 5,7 5 3 ONO 1030,9 19 -
14.01.2019 00:00:00 7,1 5,4 2 1 NNO 1031,1 20 0,0
13.01.2019 23:00:00 7,2 5,0 2 1 ONO 1031,3 20 0,0
13.01.2019 22:00:00 7,1 4,9 5 3 ONO 1031,2 20 -
13.01.2019 21:00:00 6,3 4,6 2 1 O 1031,5 20 0,0
13.01.2019 20:00:00 6,1 4,1 2 1 ZZO 1031,5 20 0,0
13.01.2019 19:00:00 6,4 3,7 0 0 N 1031,4 20 -
13.01.2019 18:00:00 8,6 5,3 2 1 N 1030,7 20 0,0
13.01.2019 17:00:00 10,4 5,6 5 3 NO 1030,1 20 0,0
13.01.2019 16:00:00 11,3 5,8 5 3 NO 1030,3 20 -
13.01.2019 15:00:00 10,7 5,4 9 5 NO 1030,8 20 0,0
13.01.2019 14:00:00 9,6 5,2 9 5 NO 1031,9 20 0,0
13.01.2019 13:00:00 9,2 5,4 11 6 NO 1032,8 20 -
13.01.2019 12:00:00 6,7 5,0 9 5 NO 1034,3 20 0,0
13.01.2019 11:00:00 4,0 3,9 0 0 N 1035,0 11 0,0
13.01.2019 10:00:00 1,7 1,6 2 1 W 1035,1 18 -
13.01.2019 09:00:00 0,6 0,3 2 1 ZZO 1035,1 6 0,0
13.01.2019 08:00:00 -0,7 -0,8 4 2 ZO 1035,4 6 0,0
13.01.2019 07:00:00 -1,0 -1,3 5 3 ZO 1035,1 4,3 -
13.01.2019 06:00:00 -1,2 -1,8 2 1 ZZO 1035,2 4,4 0,0
13.01.2019 05:00:00 -0,8 -1,4 5 3 ZO 1035,5 - 0,0
13.01.2019 04:00:00 -0,7 -1,5 4 2 Z 1035,6 6 -
13.01.2019 03:00:00 -0,3 -0,9 4 2 ZZO 1035,5 - 0,0
13.01.2019 02:00:00 0,0 -0,7 4 2 ZO 1035,7 9 0,0
13.01.2019 01:00:00 0,0 -1,1 4 2 O 1036,2 15 -
13.01.2019 00:00:00 1,0 0,3 4 2 OZO 1036,0 16 0,0
12.01.2019 23:00:00 1,7 0,8 2 1 WZW 1036,1 19 0,0
12.01.2019 22:00:00 2,5 0,9 4 2 O 1035,8 20 -
12.01.2019 21:00:00 3,9 2,1 2 1 NNO 1035,2 20 0,0
12.01.2019 20:00:00 4,8 2,8 2 1 N 1035,0 20 0,0
12.01.2019 19:00:00 5,2 3,0 4 2 ONO 1034,4 20 -
12.01.2019 18:00:00 7,2 3,6 5 3 NO 1034,0 20 0,0
12.01.2019 17:00:00 8,6 3,4 11 6 NO 1033,5 20 0,0
12.01.2019 16:00:00 9,4 3,1 9 5 NO 1032,9 20 -
12.01.2019 15:00:00 9,0 3,0 9 5 NO 1033,2 20 0,0
12.01.2019 14:00:00 10,0 3,3 13 7 ONO 1033,4 20 0,0
12.01.2019 13:00:00 8,6 3,4 8 4 NO 1034,0 20 -
12.01.2019 12:00:00 6,6 2,9 4 2 WNW 1034,9 20 0,0
12.01.2019 11:00:00 2,7 1,2 2 1 W 1035,6 20 0,0
12.01.2019 10:00:00 -1,3 -1,9 2 1 ZZO 1036,2 20 -
12.01.2019 09:00:00 -2,5 -3,5 2 1 ZO 1035,6 20 0,0
12.01.2019 08:00:00 -2,3 -3,4 4 2 Z 1035,2 20 0,0
12.01.2019 07:00:00 -1,9 -2,9 4 2 Z 1034,8 20 -
12.01.2019 06:00:00 -1,5 -2,6 2 1 O 1035,2 19 0,0
12.01.2019 05:00:00 -1,8 -2,8 4 2 OZO 1035,8 19 0,0
12.01.2019 04:00:00 -1,4 -2,4 2 1 ZZW 1035,5 20 -
12.01.2019 03:00:00 -0,5 -1,8 5 3 ONO 1035,0 20 0,0
12.01.2019 02:00:00 -0,5 -1,8 5 3 OZO 1035,0 20 0,0
12.01.2019 01:00:00 1,1 -0,7 2 1 Z 1034,8 20 -
12.01.2019 00:00:00 1,1 -1,1 4 2 ONO 1035,0 20 0,0
11.01.2019 23:00:00 2,7 0,3 2 1 NW 1034,5 20 0,0
11.01.2019 22:00:00 3,4 0,8 4 2 N 1033,9 20 -
11.01.2019 21:00:00 3,9 0,9 15 8 ONO 1033,2 20 0,0
11.01.2019 20:00:00 4,4 1,1 16 9 ONO 1033,0 20 0,0
11.01.2019 19:00:00 5,0 1,3 8 4 ONO 1032,4 20 -
11.01.2019 18:00:00 6,4 1,7 8 4 NO 1031,6 20 0,0
11.01.2019 17:00:00 7,9 1,5 18 10 NO 1031,0 20 0,0
11.01.2019 16:00:00 8,8 1,5 22 12 ONO 1030,6 20 -
11.01.2019 15:00:00 9,7 1,6 8 4 NO 1030,5 20 0,0
11.01.2019 14:00:00 9,4 1,1 15 8 NO 1030,6 20 0,0
11.01.2019 13:00:00 9,1 0,3 9 5 NO 1031,1 25 -
11.01.2019 12:00:00 7,9 -0,3 8 4 NO 1031,4 20 0,0
11.01.2019 11:00:00 5,0 -1,3 15 8 ONO 1031,6 20 0,0
11.01.2019 10:00:00 1,0 -2,8 4 2 ZW 1031,9 25 -
11.01.2019 09:00:00 1,3 -3,6 4 2 O 1031,1 20 0,0
11.01.2019 08:00:00 -0,3 -3,3 5 3 ONO 1030,9 20 0,0
11.01.2019 07:00:00 -0,5 -3,4 5 3 O 1030,6 20 -
11.01.2019 06:00:00 -1,0 -3,5 8 4 O 1030,9 20 0,0
11.01.2019 05:00:00 0,2 -2,8 5 3 O 1030,7 20 0,0
11.01.2019 04:00:00 0,1 -2,6 2 1 NO 1030,7 20 -
11.01.2019 03:00:00 1,2 -2,0 9 5 ONO 1030,2 20 0,0
11.01.2019 02:00:00 1,5 -1,6 15 8 ONO 1029,8 20 0,0
11.01.2019 01:00:00 1,8 -1,3 9 5 O 1029,7 20 -

tt = temperatuur
td = dauwpunt
ff = windsnelheid
dd = windrichting
ppp = luchtdruk
vv = zicht
rr = neerslag

Weerstations in de omgeving